TimeEST,TemperatureF,Dew PointF,Humidity,Sea Level PressureIn,VisibilityMPH,Wind Direction,Wind SpeedMPH,Gust SpeedMPH,PrecipitationIn,Events,Conditions,WindDirDegrees,DateUTC
12:53 AM,30.9,25.0,79,30.01,10.0,ENE,8.1,-,N/A,,Scattered Clouds,70,2012-11-07 05:53:00
1:15 AM,32.0,24.8,75,29.98,10.0,ENE,8.1,-,N/A,,Mostly Cloudy,70,2012-11-07 06:15:00
1:53 AM,32.0,24.1,73,30.01,10.0,ENE,6.9,-,N/A,,Mostly Cloudy,60,2012-11-07 06:53:00
2:53 AM,32.0,24.1,73,30.01,10.0,NE,5.8,-,N/A,,Overcast,50,2012-11-07 07:53:00
3:53 AM,33.1,25.0,72,30.01,10.0,ENE,8.1,-,N/A,,Overcast,60,2012-11-07 08:53:00
4:39 AM,33.8,24.8,70,29.99,10.0,NE,6.9,-,N/A,,Overcast,50,2012-11-07 09:39:00
4:53 AM,33.1,25.0,72,30.01,10.0,NE,8.1,-,N/A,,Overcast,50,2012-11-07 09:53:00
5:53 AM,32.0,26.1,79,30.03,10.0,NE,9.2,-,N/A,,Scattered Clouds,50,2012-11-07 10:53:00
6:53 AM,30.2,26.6,86,30.01,7.0,North,3.5,-,N/A,,Scattered Clouds,360,2012-11-07 11:53:00
7:53 AM,30.0,27.0,88,30.05,5.0,North,5.8,-,N/A,,Partly Cloudy,10,2012-11-07 12:53:00
8:53 AM,34.0,28.9,82,30.06,7.0,NE,6.9,-,N/A,,Partly Cloudy,50,2012-11-07 13:53:00
9:15 AM,33.8,28.4,81,30.03,7.0,NE,8.1,-,N/A,,Mostly Cloudy,50,2012-11-07 14:15:00
9:45 AM,37.4,30.2,75,30.04,8.0,NE,6.9,-,N/A,,Mostly Cloudy,40,2012-11-07 14:45:00
9:53 AM,37.0,30.0,76,30.06,8.0,ENE,4.6,-,N/A,,Mostly Cloudy,70,2012-11-07 14:53:00
10:02 AM,37.4,30.2,75,30.04,8.0,NE,5.8,-,N/A,,Scattered Clouds,50,2012-11-07 15:02:00
10:53 AM,41.0,30.9,67,30.09,10.0,East,8.1,-,N/A,,Scattered Clouds,100,2012-11-07 15:53:00
11:53 AM,42.1,30.0,62,30.09,10.0,NE,4.6,-,N/A,,Scattered Clouds,50,2012-11-07 16:53:00
12:53 PM,46.0,28.0,50,30.06,10.0,East,5.8,-,N/A,,Scattered Clouds,80,2012-11-07 17:53:00
1:53 PM,46.0,27.0,47,30.06,10.0,SE,5.8,-,N/A,,Scattered Clouds,130,2012-11-07 18:53:00
2:53 PM,46.0,25.0,44,30.06,10.0,Variable,4.6,-,N/A,,Scattered Clouds,0,2012-11-07 19:53:00
3:53 PM,46.0,25.0,44,30.06,10.0,NNE,5.8,-,N/A,,Partly Cloudy,20,2012-11-07 20:53:00
4:53 PM,44.1,24.1,45,30.08,10.0,NNE,5.8,-,N/A,,Partly Cloudy,30,2012-11-07 21:53:00
5:53 PM,41.0,25.0,53,30.10,10.0,NE,5.8,-,N/A,,Partly Cloudy,40,2012-11-07 22:53:00
6:53 PM,39.0,28.0,65,30.13,10.0,NE,8.1,-,N/A,,Partly Cloudy,50,2012-11-07 23:53:00
7:53 PM,36.0,28.9,76,30.14,10.0,ENE,8.1,-,N/A,,Clear,60,2012-11-08 00:53:00
8:53 PM,34.0,27.0,75,30.15,10.0,ENE,3.5,-,N/A,,Clear,60,2012-11-08 01:53:00
9:53 PM,30.9,26.1,82,30.17,9.0,North,3.5,-,N/A,,Clear,360,2012-11-08 02:53:00
10:53 PM,30.0,26.1,85,30.16,8.0,Calm,Calm,-,N/A,,Clear,0,2012-11-08 03:53:00
11:53 PM,30.0,25.0,82,30.16,8.0,Calm,Calm,-,N/A,,Clear,0,2012-11-08 04:53:00